• In Hungary
  • List of Countries
  • For 7 days
  • Water Temperature
  • Satellite Maps
  • Weather Map
  • News
  • Weather Widgets
  • user-avatar
    Login

    Hourly Weather Kegalle

    Today, 23 September, Sunday

    Time Temperature Precipitation Wind Pressure Humidity
    00:00 +26°C° 0 mm 1 mps 739 mmHg 90%
    01:00 +25°C° 0 mm 1 mps 739 mmHg 90%
    02:00 +25°C° 0 mm 1 mps 739 mmHg 89%
    03:00 +25°C° 0 mm 1 mps 739 mmHg 89%
    04:00 +25°C° 0 mm 1 mps 739 mmHg 89%
    05:00 +25°C° 0 mm 1 mps 739 mmHg 89%
    06:00 +26°C° 0 mm 1 mps 739 mmHg 83%
    07:00 +28°C° 0 mm 1 mps 740 mmHg 77%
    08:00 +30°C° 0 mm 2 mps 740 mmHg 71%
    09:00 +31°C° 0.1 mm 2 mps 740 mmHg 66%
    10:00 +32°C° 0.1 mm 2 mps 740 mmHg 61%
    11:00 +34°C° 0.1 mm 2 mps 740 mmHg 57%
    12:00 +34°C° 0.9 mm 2 mps 739 mmHg 60%
    13:00 +33°C° 0.9 mm 3 mps 739 mmHg 64%
    14:00 +33°C° 0.9 mm 3 mps 738 mmHg 67%
    15:00 +30°C° 1.8 mm 2 mps 738 mmHg 73%
    16:00 +29°C° 1.8 mm 2 mps 738 mmHg 79%
    17:00 +28°C° 1.8 mm 2 mps 738 mmHg 84%
    18:00 +27°C° 1 mm 2 mps 738 mmHg 87%
    19:00 +27°C° 1 mm 1 mps 739 mmHg 89%
    20:00 +26°C° 1 mm 1 mps 740 mmHg 91%
    21:00 +26°C° 0.4 mm 1 mps 740 mmHg 91%
    22:00 +26°C° 0.4 mm 1 mps 740 mmHg 91%
    23:00 +26°C° 0.4 mm 1 mps 740 mmHg 91%

    Tomorrow, 24 September, Monday

    Time Temperature Precipitation Wind Pressure Humidity
    00:00 +26°C° 0.7 mm 1 mps 739 mmHg 92%
    01:00 +25°C° 0.7 mm 1 mps 739 mmHg 92%
    02:00 +25°C° 0.7 mm 1 mps 739 mmHg 93%
    03:00 +25°C° 0.9 mm 1 mps 739 mmHg 93%
    04:00 +25°C° 0.9 mm 1 mps 739 mmHg 93%
    05:00 +25°C° 0.9 mm 1 mps 739 mmHg 92%
    06:00 +26°C° 0.2 mm 1 mps 739 mmHg 87%
    07:00 +27°C° 0.2 mm 1 mps 740 mmHg 81%
    08:00 +29°C° 0.2 mm 1 mps 740 mmHg 75%
    09:00 +30°C° 0.3 mm 1 mps 740 mmHg 70%
    10:00 +31°C° 0.3 mm 2 mps 740 mmHg 66%
    11:00 +32°C° 0.3 mm 2 mps 740 mmHg 61%
    12:00 +32°C° 2.1 mm 2 mps 739 mmHg 66%
    13:00 +31°C° 2.1 mm 2 mps 739 mmHg 70%
    14:00 +30°C° 2.1 mm 2 mps 738 mmHg 75%
    15:00 +29°C° 2.5 mm 2 mps 738 mmHg 80%
    16:00 +28°C° 2.5 mm 1 mps 738 mmHg 84%
    17:00 +27°C° 2.5 mm 1 mps 738 mmHg 89%
    18:00 +27°C° 0.6 mm 1 mps 739 mmHg 90%
    19:00 +26°C° 0.6 mm 1 mps 739 mmHg 90%
    20:00 +26°C° 0.6 mm 1 mps 740 mmHg 91%
    21:00 +26°C° 0.2 mm 1 mps 740 mmHg 91%
    22:00 +25°C° 0.2 mm 1 mps 740 mmHg 90%
    23:00 +25°C° 0.2 mm 1 mps 740 mmHg 90%

    Day after tomorrow, 25 September, Tuesday

    Time Temperature Precipitation Wind Pressure Humidity
    00:00 +25°C° 0.2 mm 1 mps 739 mmHg 91%
    01:00 +25°C° 0.2 mm 1 mps 739 mmHg 91%
    02:00 +25°C° 0.2 mm 1 mps 738 mmHg 91%
    03:00 +25°C° 0.1 mm 1 mps 738 mmHg 92%
    04:00 +25°C° 0.1 mm 1 mps 738 mmHg 92%
    05:00 +25°C° 0.1 mm 1 mps 738 mmHg 92%
    06:00 +26°C° 0 mm 1 mps 739 mmHg 87%
    07:00 +27°C° 0 mm 1 mps 739 mmHg 83%
    08:00 +28°C° 0 mm 1 mps 740 mmHg 79%
    09:00 +30°C° 0.1 mm 1 mps 740 mmHg 73%
    10:00 +31°C° 0.1 mm 2 mps 740 mmHg 67%
    11:00 +32°C° 0.1 mm 2 mps 740 mmHg 61%
    12:00 +32°C° 0.4 mm 2 mps 739 mmHg 62%
    13:00 +32°C° 0.4 mm 2 mps 738 mmHg 64%
    14:00 +32°C° 0.4 mm 2 mps 737 mmHg 66%
    15:00 +31°C° 0.3 mm 2 mps 737 mmHg 71%
    16:00 +30°C° 0.3 mm 2 mps 737 mmHg 76%
    17:00 +29°C° 0.3 mm 2 mps 737 mmHg 80%
    18:00 +28°C° 0.3 mm 1 mps 737 mmHg 84%
    19:00 +27°C° 0.3 mm 1 mps 738 mmHg 88%
    20:00 +27°C° 0.3 mm 1 mps 739 mmHg 92%
    21:00 +26°C° 0.1 mm 1 mps 739 mmHg 92%
    22:00 +26°C° 0.1 mm 1 mps 739 mmHg 93%
    23:00 +26°C° 0.1 mm 1 mps 739 mmHg 93%

    26 September, Wednesday

    Time Temperature Precipitation Wind Pressure Humidity
    00:00 +26°C° 0.7 mm 1 mps 738 mmHg 94%
    01:00 +26°C° 0.7 mm 1 mps 738 mmHg 94%
    02:00 +25°C° 0.7 mm 1 mps 737 mmHg 94%
    03:00 +25°C° 0.3 mm 1 mps 737 mmHg 94%
    04:00 +25°C° 0.3 mm 1 mps 737 mmHg 94%
    05:00 +25°C° 0.3 mm 1 mps 737 mmHg 93%
    06:00 +26°C° 0.1 mm 1 mps 738 mmHg 88%
    07:00 +27°C° 0.1 mm 1 mps 739 mmHg 83%
    08:00 +29°C° 0.1 mm 1 mps 739 mmHg 78%
    09:00 +30°C° 0.1 mm 1 mps 739 mmHg 71%
    10:00 +31°C° 0.1 mm 2 mps 739 mmHg 65%
    11:00 +34°C° 0.1 mm 2 mps 738 mmHg 59%
    12:00 +34°C° 0.4 mm 2 mps 738 mmHg 61%
    13:00 +34°C° 0.4 mm 2 mps 737 mmHg 62%
    14:00 +32°C° 0.4 mm 2 mps 736 mmHg 63%
    15:00 +31°C° 1.6 mm 2 mps 736 mmHg 69%
    16:00 +30°C° 1.6 mm 2 mps 736 mmHg 76%
    17:00 +28°C° 1.6 mm 2 mps 736 mmHg 82%
    18:00 +28°C° 0.8 mm 1 mps 737 mmHg 85%
    19:00 +27°C° 0.8 mm 1 mps 737 mmHg 88%
    20:00 +27°C° 0.8 mm 1 mps 738 mmHg 91%
    21:00 +27°C° 0.6 mm 1 mps 738 mmHg 91%
    22:00 +26°C° 0.6 mm 1 mps 738 mmHg 92%
    23:00 +26°C° 0.6 mm 1 mps 738 mmHg 92%

    27 September, Thursday

    Time Temperature Precipitation Wind Pressure Humidity
    00:00 +26°C° 0.9 mm 1 mps 738 mmHg 92%
    01:00 +26°C° 0.9 mm 1 mps 737 mmHg 92%
    02:00 +26°C° 0.9 mm 1 mps 737 mmHg 93%
    03:00 +26°C° 0.4 mm 1 mps 737 mmHg 93%
    04:00 +26°C° 0.4 mm 1 mps 737 mmHg 93%
    05:00 +25°C° 0.4 mm 1 mps 737 mmHg 93%
    06:00 +26°C° 0.3 mm 1 mps 738 mmHg 88%
    07:00 +27°C° 0.3 mm 1 mps 739 mmHg 84%
    08:00 +29°C° 0.3 mm 1 mps 739 mmHg 79%
    09:00 +30°C° 0.5 mm 2 mps 739 mmHg 75%
    10:00 +31°C° 0.5 mm 2 mps 739 mmHg 70%
    11:00 +32°C° 0.5 mm 2 mps 739 mmHg 65%
    12:00 +32°C° 1.1 mm 2 mps 738 mmHg 67%
    13:00 +31°C° 1.1 mm 2 mps 737 mmHg 68%
    14:00 +31°C° 1.1 mm 2 mps 736 mmHg 70%
    15:00 +30°C° 0.7 mm 2 mps 736 mmHg 74%
    16:00 +29°C° 0.7 mm 2 mps 737 mmHg 78%
    17:00 +28°C° 0.7 mm 2 mps 737 mmHg 82%
    18:00 +28°C° 0.1 mm 2 mps 738 mmHg 85%
    19:00 +27°C° 0.1 mm 1 mps 738 mmHg 88%
    20:00 +27°C° 0.1 mm 1 mps 739 mmHg 90%
    21:00 +26°C° 0.1 mm 1 mps 739 mmHg 91%
    22:00 +26°C° 0.1 mm 1 mps 739 mmHg 91%
    23:00 +26°C° 0.1 mm 1 mps 739 mmHg 91%

    28 September, Friday

    Time Temperature Precipitation Wind Pressure Humidity
    00:00 +26°C° 0.1 mm 1 mps 738 mmHg 91%
    01:00 +26°C° 0.1 mm 1 mps 738 mmHg 91%
    02:00 +26°C° 0.1 mm 1 mps 737 mmHg 91%
    03:00 +25°C° 0 mm 1 mps 737 mmHg 90%
    04:00 +25°C° 0 mm 1 mps 738 mmHg 90%
    05:00 +25°C° 0 mm 1 mps 738 mmHg 89%
    06:00 +26°C° 0 mm 1 mps 739 mmHg 84%
    07:00 +28°C° 0 mm 1 mps 739 mmHg 78%
    08:00 +29°C° 0 mm 2 mps 740 mmHg 72%
    09:00 +30°C° 0.1 mm 2 mps 740 mmHg 67%
    10:00 +32°C° 0.1 mm 2 mps 739 mmHg 61%
    11:00 +34°C° 0.1 mm 2 mps 739 mmHg 56%
    12:00 +34°C° 0.2 mm 3 mps 738 mmHg 56%
    13:00 +34°C° 0.2 mm 3 mps 737 mmHg 57%
    14:00 +34°C° 0.2 mm 3 mps 737 mmHg 57%
    15:00 +32°C° 0.2 mm 2 mps 737 mmHg 63%
    16:00 +30°C° 0.2 mm 2 mps 737 mmHg 68%
    17:00 +29°C° 0.2 mm 2 mps 737 mmHg 74%
    18:00 +28°C° 0 mm 2 mps 738 mmHg 78%
    19:00 +27°C° 0 mm 1 mps 738 mmHg 82%
    20:00 +27°C° 0 mm 1 mps 739 mmHg 86%
    21:00 +26°C° 0 mm 1 mps 739 mmHg 87%
    22:00 +26°C° 0 mm 1 mps 739 mmHg 88%
    23:00 +26°C° 0 mm 1 mps 739 mmHg 88%
    Show more